User: anonymous   Login
Location: Oshawa
(43.9000°N, 78.8670°W)
Time: 02:32:11
(UTC-04:00)
Language:

Hubble Space Telescope - Orbit

View from above orbital plane
View from above orbital plane
View from above satellite
View from above satellite

Ground track
Ground track

The orbit data is extracted from the following two-line orbital elements,

1 20580U 90037B   16146.94210321  .00000798  00000-0  38843-4 0  9998
2 20580  28.4707  45.6180 0002644 332.1299 133.5279 15.08367297231749
Epoch (UTC): 25 May 2016 22:36:37
Eccentricity: 0.0002644
inclination: 28.4707°
perigee height: 539 km
apogee height: 543 km
right ascension of ascending node: 45.6180°
argument of perigee: 332.1299°
revolutions per day: 15.08367297
mean anomaly at epoch: 133.5279°
orbit number at epoch: 23174

The dashed part of the orbit path shows where the satellite is in the earth's shadow,  

DLR